SCP
0 0 -0 0 0 0 0 0 0 -0 0 0 0 0 0 1 1 1 1 1 1 1 1 1 1 1 1 1 1 1 0 0 0 0 0 0 0 0 0 0 0 0 0 0
-0 0 0 0 0 0 -0 0 0 0 0 1 0 0 1 1 1 1 1 1 1 1 1 1 1 0 0 0 0 0 0 0 1 0 0 0 0 0 0 0 0 0 0 0
-0 0 0 0 -0 0 0 0 0 0 1 0 0 0 0 1 1 1 1 1 1 1 1 1 0 0 0 0 0 0 0 0 0 0 0 0 0 0 0 0 0 0 0 0
0 0 0 -0 0 0 0 0 0 0 0 0 1 0 1 1 1 1 1 1 1 1 1 0 0 0 0 0 0 0 0 0 0 0 0 0 0 0 0 1 1 0 0 0
0 0 0 0 0 0 0 0 0 0 0 0 1 1 1 1 1 1 1 1 0 0 0 0 0 0 0 0 0 0 0 0 0 0 0 0 0 0 0 0 0 1 0 0
0 0 0 0 0 0 0 0 0 0 0 0 0 0 1 1 0 1 1 1 0 0 0 0 0 0 0 0 0 0 0 0 0 0 0 0 0 0 0 0 0 0 0 0
0 0 0 0 0 0 0 0 0 0 0 0 0 1 1 1 1 1 1 1 0 0 0 0 0 0 0 0 0 0 0 0 0 0 0 0 0 0 1 0 0 0 0 0
0 0 0 0 0 0 0 0 0 0 0 0 1 1 1 1 1 1 1 0 0 0 0 0 0 0 0 0 1 0 0 0 0 0 0 0 0 0 0 1 0 0 1 0
0 0 0 0 0 1 0 1 1 1 1 1 1 1 1 1 1 0 0 0 0 0 0 0 0 1 0 1 0 0 0 0 0 1 0 1 1 1 0 0 0 0 0 0
0 0 0 0 0 0 0 0 1 1 1 1 0 0 0 0 0 0 0 0 0 0 0 0 0 0 0 0 0 0 0 0 0 0 0 1 0 0 0 0 0 0 0 0
0 0 0 0 0 0 0 0 0 0 0 0 0 0 0 0 0 0 0 0 0 0 0 0 0 0 0 0 0 0 0 0 0 0 0 0 0 0 0 0 0 0 0 0
0 0 0 0 0 0 0 0 0 0 0 0 0 0 0 0 0 0 0 0 0 0 0 0 0 0 0 0 0 0 0 0 0 0 0 0 0 0 0 0 0 0 0 0
0 0 0 0 0 0 0 0 0 0 0 0 0 0 0 0 0 0 0 0 0 0 0 0 0 0 0 0 0 0 0 0 0 0 0 0 0 0 0 0 0 0 0 0
0 0 0 0 0 0 0 0 0 0 0 0 0 0 0 0 0 0 0 0 0 0 0 0 0 0 0 0 0 0 0 0 0 0 0 0 0 0 0 0 0 0 0 0
0 0 0 0 0 0 0 0 0 0 0 0 0 0 0 0 0 0 0 0 0 0 0 0 0 0 0 0 0 0 0 0 0 0 0 0 0 0 0 0 0 0 0 0
0 0 0 0 0 0 0 0 0 0 0 0 0 0 0 0 0 0 0 0 0 0 0 0 0 0 0 0 0 0 0 0 0 0 0 0 0 0 0 0 0 0 0 0
0 0 0 0 0 0 0 0 0 0 0 0 0 0 0 0 0 0 0 0 0 0 0 0 0 0 0 0 0 0 0 0 0 0 0 0 0 0 0 0 0 0 0 0
0 0 0 0 0 0 0 0 0 0 0 0 0 0 0 0 0 0 0 0 0 0 0 0 0 0 0 0 0 0 0 0 0 0 0 0 0 0 0 0 0 0 0 0
0 0 0 0 0 0 0 0 0 0 0 0 0 0 0 0 0 0 0 0 0 0 0 0 0 0 0 0 0 0 0 0 0 0 0 0 0 0 0 0 0 0 0 0
0 0 0 0 0 0 0 0 0 0 0 0 0 0 0 0 0 0 0 0 0 0 0 0 0 0 0 0 0 0 0 0 0 0 0 0 0 0 0 0 0 0 0 0
0 0 0 0 0 0 0 0 0 0 0 0 0 0 0 0 0 0 0 0 0 0 0 0 0 0 0 0 0 0 0 0 0 0 0 0 0 0 0 0 0 0 0 0
0 0 0 0 0 0 0 0 0 0 0 0 0 0 0 0 0 0 0 0 0 0 0 0 0 0 0 0 0 0 0 0 0 0 0 0 0 0 0 0 0 0 0 0
0 0 0 0 0 0 0 0 0 0 0 0 0 0 0 0 0 0 0 0 -0 -0 0 0 0 0 0 -0 0 0 0 0 0 0 0 0 0 0 0 0 0 0 0 0
0 0 0 0 0 0 0 0 0 0 0 0 0 0 0 0 0 0 0 0 0 -0 -0 0 0 0 -0 -0 -0 -0 0 0 0 0 0 0 0 0 0 0 0 0 0 0
0 0 0 0 0 0 0 0 0 0 0 0 0 0 0 0 0 0 0 0 0 -0 -0 0 0 -0 -0 -0 -0 -0 0 0 0 0 0 0 0 -0 0 0 0 0 0 0
0 0 0 0 0 0 0 0 0 0 0 0 0 0 0 0 0 -0 -0 0 -0 -0 0 0 0 0 -0 -0 -0 -0 -0 -0 0 0 0 0 0 0 0 0 -0 0 0 0
0 0 0 0 0 0 0 0 0 0 0 0 0 0 0 0 0 0 0 -0 -0 -0 -0 0 0 0 0 0 -0 -0 -0 -0 -0 0 0 0 0 0 0 0 0 0 0 0
Wind_Speed_500mb
35 28 48 14 10 9 14 17 21 32 26 8 21 13 18 21 18 20 21 19 17 17 17 16 16 15 14 12 6 6 3 7 13 16 20 18 21 27 31 36 39 35 31 35
42 23 12 19 19 20 22 20 20 22 23 23 15 22 19 23 24 21 20 20 19 18 17 15 15 14 14 14 13 11 11 9 8 10 10 15 20 23 28 30 32 35 36 38
27 5 20 20 23 23 6 16 21 19 22 10 15 21 24 24 23 22 19 18 18 17 14 13 10 8 7 7 7 6 6 8 10 10 12 15 16 18 20 25 30 31 34 38
5 11 3 33 12 13 23 22 15 10 4 3 13 19 20 21 21 22 21 17 15 13 11 8 5 3 2 2 3 4 5 8 11 14 19 22 23 24 23 24 28 30 33 36
11 24 28 21 12 12 14 19 20 8 16 14 16 19 19 23 24 21 18 13 11 11 9 6 6 8 9 10 11 15 17 17 19 21 23 24 25 27 27 28 29 33 34 35
23 29 35 21 13 13 16 18 22 17 18 22 18 17 14 29 21 20 16 8 10 11 14 18 15 15 14 18 20 19 22 24 24 26 28 29 29 31 30 30 33 33 33 34
23 28 27 10 7 8 16 6 13 13 21 21 13 20 18 20 17 14 9 8 11 14 17 20 17 16 17 22 23 19 21 25 28 31 34 36 42 41 40 40 43 48 45 43
24 20 27 13 5 14 12 2 2 7 9 11 15 9 9 13 12 9 7 9 9 14 15 16 19 17 19 20 18 20 23 27 30 33 37 41 47 49 51 54 53 56 54 47
16 11 8 10 9 11 8 2 3 2 7 10 12 11 7 4 3 4 9 14 16 17 18 21 20 16 19 18 22 25 29 32 36 41 46 51 57 61 58 53 53 51 46 45
14 9 5 6 3 4 5 3 5 9 8 7 8 7 6 4 7 13 18 19 22 25 26 24 22 22 25 27 29 34 39 44 47 50 53 56 56 57 59 57 55 54 52 50
18 22 12 21 13 7 7 7 8 7 5 2 3 7 8 12 17 20 20 23 23 23 26 28 30 31 33 37 38 43 46 49 50 50 52 52 53 51 53 58 56 56 55 51
14 17 7 11 7 11 13 12 9 8 7 5 5 11 14 18 22 24 22 21 27 28 31 34 37 40 40 40 42 46 51 52 51 51 51 50 51 54 56 61 62 64 66 67
22 16 13 19 20 14 18 14 12 7 7 10 13 16 18 23 25 18 28 29 30 33 38 43 44 45 44 42 43 48 52 53 51 49 47 47 48 52 56 53 55 60 62 60
13 11 13 13 16 15 13 12 5 8 11 14 16 19 22 27 30 31 32 34 39 44 46 48 52 54 48 47 46 51 49 46 45 42 44 44 44 45 48 55 59 59 54 60
17 17 14 10 10 15 12 11 12 16 16 11 18 22 26 29 32 34 36 39 43 47 48 48 46 49 49 52 51 49 43 45 44 44 45 48 48 47 48 48 53 56 52 51
13 18 12 14 17 15 13 14 15 13 13 16 21 23 26 30 35 37 38 38 41 47 46 50 53 49 49 50 47 48 41 57 57 51 50 47 48 48 48 48 53 57 52 47
16 21 22 19 17 14 4 4 6 8 11 15 19 24 28 33 35 35 35 36 36 45 46 44 45 46 46 45 41 54 57 57 53 52 54 48 54 63 53 50 49 50 53 53
10 7 11 2 13 10 11 2 5 9 12 16 20 22 24 26 29 32 35 36 38 41 36 41 45 54 56 53 47 51 51 51 49 53 52 50 56 54 53 55 55 53 53 53
12 11 11 13 10 9 4 2 7 10 11 14 16 18 20 23 27 31 34 36 37 38 40 52 57 57 55 53 49 51 52 55 50 48 50 52 54 51 50 48 51 53 55 61
20 18 16 16 14 10 5 6 6 7 11 12 14 16 19 22 27 30 32 33 30 40 53 50 50 44 45 51 47 47 51 56 58 55 48 51 51 52 57 60 62 67 57 54
21 17 14 13 13 13 11 9 8 9 10 13 16 18 22 25 25 30 31 34 40 44 49 48 43 45 50 53 55 56 53 48 44 47 48 51 50 59 65 63 59 56 56 55
18 16 14 12 10 11 11 9 9 9 10 13 16 21 24 26 27 29 31 37 40 48 51 47 47 51 53 53 49 41 38 41 46 50 53 55 61 58 56 51 50 51 53 56
12 10 10 7 7 8 7 6 6 6 6 10 13 17 21 23 25 30 34 37 43 48 48 51 53 56 56 47 43 42 41 42 44 44 46 49 52 53 50 46 49 52 52 47
13 11 10 9 8 5 2 3 2 5 7 9 11 13 17 19 20 24 30 38 53 56 50 62 61 60 55 51 49 45 41 39 40 42 42 42 42 42 43 43 44 44 44 45
12 11 9 8 7 4 4 2 2 6 8 8 12 14 16 17 20 26 29 32 40 43 42 53 64 63 64 62 58 52 46 40 37 34 33 34 37 39 39 38 39 42 45 43
17 12 11 12 6 6 5 4 5 6 7 10 11 14 16 18 21 25 27 31 32 35 36 39 53 62 64 71 71 67 60 52 45 37 33 33 34 34 36 35 38 42 42 39
21 16 14 11 10 10 8 8 6 7 9 10 11 12 15 17 20 23 26 28 30 32 33 35 36 53 58 64 66 70 73 72 65 54 45 41 38 34 34 33 32 33 33 34
Wind_Direction_500mb
148 181 248 297 273 267 278 304 301 315 328 14 82 139 171 157 146 154 151 135 131 119 112 101 89 79 71 58 35 9 325 280 277 284 299 294 287 279 276 275 256 256 262 267
273 187 227 250 260 278 273 269 280 288 272 74 104 128 154 160 161 152 144 140 136 132 125 115 104 90 78 71 63 62 61 52 23 1 313 296 298 292 273 271 268 259 257 256
242 110 336 256 251 281 333 306 298 272 74 116 127 147 169 162 166 154 152 151 149 145 142 135 128 114 93 86 69 58 47 21 5 356 341 331 320 312 287 276 274 270 267 266
112 212 282 257 17 301 291 291 252 274 330 229 139 153 156 170 167 163 161 163 164 164 163 170 176 220 222 278 281 291 309 320 328 330 323 318 316 316 308 297 288 279 277 274
338 281 256 315 293 202 273 267 213 233 114 144 143 150 166 176 167 168 169 176 192 198 214 227 255 265 274 283 291 297 297 299 300 303 306 309 312 310 308 310 304 296 293 294
256 296 290 307 346 63 337 270 218 172 150 160 169 230 147 169 173 174 177 193 221 244 254 256 249 277 264 279 278 285 290 291 289 290 294 297 296 300 302 308 313 307 298 292
250 259 265 76 62 98 248 36 55 160 172 180 209 65 130 164 176 184 190 239 250 260 274 278 275 274 276 284 285 289 285 286 287 289 285 285 290 293 295 297 294 296 294 294
255 253 269 20 150 255 52 14 188 222 176 200 138 114 145 165 177 197 231 269 276 283 284 280 282 278 282 282 277 280 286 289 289 289 290 289 284 281 282 285 291 293 293 298
326 20 61 8 338 31 326 107 252 143 145 205 200 154 163 177 179 280 291 289 289 290 288 289 279 279 288 283 286 290 290 288 287 283 278 276 279 284 287 286 284 284 285 286
283 304 351 336 304 280 245 238 184 160 153 185 179 186 240 266 302 304 301 299 295 295 294 292 288 287 289 294 293 292 293 293 293 290 287 282 280 276 276 276 276 277 281 284
264 268 237 254 256 211 189 184 174 147 158 175 235 276 302 294 302 300 300 302 298 296 294 294 293 291 293 295 296 295 295 294 295 295 293 289 282 277 271 269 270 273 275 279
253 39 320 310 257 221 230 213 206 207 188 224 297 302 307 301 300 300 299 302 299 296 296 297 296 295 295 295 295 293 293 295 295 294 294 291 287 284 278 276 274 275 278 279
294 309 291 268 264 227 231 222 206 222 252 286 303 304 307 302 300 312 299 293 293 299 299 298 297 296 297 296 295 293 292 292 291 292 291 292 290 286 286 282 282 282 281 282
273 258 248 240 224 205 221 186 190 265 278 286 301 305 306 308 307 307 305 303 299 297 296 296 294 292 294 296 293 294 289 288 294 295 294 292 289 291 287 283 282 284 283 289
251 233 257 209 210 182 204 200 240 267 277 296 311 318 313 309 307 305 303 301 299 296 296 297 300 295 294 289 295 291 285 291 292 292 292 292 290 286 284 283 281 282 284 281
211 224 207 224 207 196 222 248 265 299 329 322 311 310 307 305 305 306 307 307 307 302 300 302 299 295 293 289 285 289 284 289 289 292 291 291 291 289 290 284 286 284 281 284
254 221 233 238 229 238 198 36 322 322 317 318 316 315 314 312 310 310 310 310 307 303 309 307 307 293 296 297 301 291 292 293 291 294 286 287 294 288 287 287 288 289 285 283
253 268 219 234 163 153 146 124 319 336 333 328 325 325 322 320 320 319 321 318 314 312 314 302 291 292 294 299 300 295 294 291 291 286 290 290 287 285 287 289 288 286 285 285
170 136 118 110 99 101 102 4 342 344 342 345 347 344 339 337 329 325 326 327 327 324 316 311 311 310 307 302 298 294 291 292 291 287 287 290 289 285 282 283 287 287 285 278
132 133 118 99 85 87 82 33 32 28 18 15 6 358 350 340 339 336 337 337 334 321 323 324 324 319 310 309 303 297 292 289 289 289 287 286 288 289 289 289 288 289 287 276
131 119 103 97 88 82 78 75 73 60 41 28 20 11 360 358 347 342 343 339 335 334 334 337 333 325 319 314 309 305 303 298 293 290 288 288 290 289 292 293 294 292 289 283
123 109 100 101 99 95 90 77 68 54 40 31 14 7 5 359 358 353 351 337 342 346 351 351 343 334 327 321 318 309 297 288 283 283 283 284 290 297 298 300 305 305 296 290
132 122 103 115 132 122 105 79 46 51 33 12 8 10 10 8 1 5 3 359 5 360 3 1 356 354 350 345 337 325 312 303 298 294 290 289 292 296 299 301 304 307 307 303
148 143 148 147 147 147 136 88 72 22 4 4 354 360 358 356 359 356 355 351 360 4 8 10 10 6 2 360 355 346 335 323 313 304 301 301 301 297 294 289 294 293 297 298
173 169 168 170 174 207 203 238 293 337 337 332 344 353 350 346 346 349 346 347 352 360 1 359 15 16 17 15 9 3 354 346 335 326 320 316 314 309 300 296 296 300 300 298
192 200 208 198 235 231 237 273 296 311 331 332 333 337 341 343 341 349 345 344 349 350 352 354 358 11 21 23 22 20 16 8 359 352 344 337 328 323 314 304 302 302 300 297
208 214 215 218 225 227 233 241 255 293 318 325 325 333 348 354 352 357 357 355 358 0 358 354 354 356 10 17 19 23 27 27 24 18 12 7 354 347 336 334 331 326 321 311
Wind_Speed_850mb
35 28 48 14 10 9 14 17 21 32 26 8 21 13 18 21 18 20 21 19 17 17 17 16 16 15 14 12 6 6 3 7 13 16 20 18 21 27 31 36 39 35 31 35
42 23 12 19 19 20 22 20 20 22 23 23 15 22 19 23 24 21 20 20 19 18 17 15 15 14 14 14 13 11 11 9 8 10 10 15 20 23 28 30 32 35 36 38
27 5 20 20 23 23 6 16 21 19 22 10 15 21 24 24 23 22 19 18 18 17 14 13 10 8 7 7 7 6 6 8 10 10 12 15 16 18 20 25 30 31 34 38
5 11 3 33 12 13 23 22 15 10 4 3 13 19 20 21 21 22 21 17 15 13 11 8 5 3 2 2 3 4 5 8 11 14 19 22 23 24 23 24 28 30 33 36
11 24 28 21 12 12 14 19 20 8 16 14 16 19 19 23 24 21 18 13 11 11 9 6 6 8 9 10 11 15 17 17 19 21 23 24 25 27 27 28 29 33 34 35
23 29 35 21 13 13 16 18 22 17 18 22 18 17 14 29 21 20 16 8 10 11 14 18 15 15 14 18 20 19 22 24 24 26 28 29 29 31 30 30 33 33 33 34
23 28 27 10 7 8 16 6 13 13 21 21 13 20 18 20 17 14 9 8 11 14 17 20 17 16 17 22 23 19 21 25 28 31 34 36 42 41 40 40 43 48 45 43
24 20 27 13 5 14 12 2 2 7 9 11 15 9 9 13 12 9 7 9 9 14 15 16 19 17 19 20 18 20 23 27 30 33 37 41 47 49 51 54 53 56 54 47
16 11 8 10 9 11 8 2 3 2 7 10 12 11 7 4 3 4 9 14 16 17 18 21 20 16 19 18 22 25 29 32 36 41 46 51 57 61 58 53 53 51 46 45
14 9 5 6 3 4 5 3 5 9 8 7 8 7 6 4 7 13 18 19 22 25 26 24 22 22 25 27 29 34 39 44 47 50 53 56 56 57 59 57 55 54 52 50
18 22 12 21 13 7 7 7 8 7 5 2 3 7 8 12 17 20 20 23 23 23 26 28 30 31 33 37 38 43 46 49 50 50 52 52 53 51 53 58 56 56 55 51
14 17 7 11 7 11 13 12 9 8 7 5 5 11 14 18 22 24 22 21 27 28 31 34 37 40 40 40 42 46 51 52 51 51 51 50 51 54 56 61 62 64 66 67
22 16 13 19 20 14 18 14 12 7 7 10 13 16 18 23 25 18 28 29 30 33 38 43 44 45 44 42 43 48 52 53 51 49 47 47 48 52 56 53 55 60 62 60
13 11 13 13 16 15 13 12 5 8 11 14 16 19 22 27 30 31 32 34 39 44 46 48 52 54 48 47 46 51 49 46 45 42 44 44 44 45 48 55 59 59 54 60
17 17 14 10 10 15 12 11 12 16 16 11 18 22 26 29 32 34 36 39 43 47 48 48 46 49 49 52 51 49 43 45 44 44 45 48 48 47 48 48 53 56 52 51
13 18 12 14 17 15 13 14 15 13 13 16 21 23 26 30 35 37 38 38 41 47 46 50 53 49 49 50 47 48 41 57 57 51 50 47 48 48 48 48 53 57 52 47
16 21 22 19 17 14 4 4 6 8 11 15 19 24 28 33 35 35 35 36 36 45 46 44 45 46 46 45 41 54 57 57 53 52 54 48 54 63 53 50 49 50 53 53
10 7 11 2 13 10 11 2 5 9 12 16 20 22 24 26 29 32 35 36 38 41 36 41 45 54 56 53 47 51 51 51 49 53 52 50 56 54 53 55 55 53 53 53
12 11 11 13 10 9 4 2 7 10 11 14 16 18 20 23 27 31 34 36 37 38 40 52 57 57 55 53 49 51 52 55 50 48 50 52 54 51 50 48 51 53 55 61
20 18 16 16 14 10 5 6 6 7 11 12 14 16 19 22 27 30 32 33 30 40 53 50 50 44 45 51 47 47 51 56 58 55 48 51 51 52 57 60 62 67 57 54
21 17 14 13 13 13 11 9 8 9 10 13 16 18 22 25 25 30 31 34 40 44 49 48 43 45 50 53 55 56 53 48 44 47 48 51 50 59 65 63 59 56 56 55
18 16 14 12 10 11 11 9 9 9 10 13 16 21 24 26 27 29 31 37 40 48 51 47 47 51 53 53 49 41 38 41 46 50 53 55 61 58 56 51 50 51 53 56
12 10 10 7 7 8 7 6 6 6 6 10 13 17 21 23 25 30 34 37 43 48 48 51 53 56 56 47 43 42 41 42 44 44 46 49 52 53 50 46 49 52 52 47
13 11 10 9 8 5 2 3 2 5 7 9 11 13 17 19 20 24 30 38 53 56 50 62 61 60 55 51 49 45 41 39 40 42 42 42 42 42 43 43 44 44 44 45
12 11 9 8 7 4 4 2 2 6 8 8 12 14 16 17 20 26 29 32 40 43 42 53 64 63 64 62 58 52 46 40 37 34 33 34 37 39 39 38 39 42 45 43
17 12 11 12 6 6 5 4 5 6 7 10 11 14 16 18 21 25 27 31 32 35 36 39 53 62 64 71 71 67 60 52 45 37 33 33 34 34 36 35 38 42 42 39
21 16 14 11 10 10 8 8 6 7 9 10 11 12 15 17 20 23 26 28 30 32 33 35 36 53 58 64 66 70 73 72 65 54 45 41 38 34 34 33 32 33 33 34
Wind_Direction_850mb
148 181 248 297 273 267 278 304 301 315 328 14 82 139 171 157 146 154 151 135 131 119 112 101 89 79 71 58 35 9 325 280 277 284 299 294 287 279 276 275 256 256 262 267
273 187 227 250 260 278 273 269 280 288 272 74 104 128 154 160 161 152 144 140 136 132 125 115 104 90 78 71 63 62 61 52 23 1 313 296 298 292 273 271 268 259 257 256
242 110 336 256 251 281 333 306 298 272 74 116 127 147 169 162 166 154 152 151 149 145 142 135 128 114 93 86 69 58 47 21 5 356 341 331 320 312 287 276 274 270 267 266
112 212 282 257 17 301 291 291 252 274 330 229 139 153 156 170 167 163 161 163 164 164 163 170 176 220 222 278 281 291 309 320 328 330 323 318 316 316 308 297 288 279 277 274
338 281 256 315 293 202 273 267 213 233 114 144 143 150 166 176 167 168 169 176 192 198 214 227 255 265 274 283 291 297 297 299 300 303 306 309 312 310 308 310 304 296 293 294
256 296 290 307 346 63 337 270 218 172 150 160 169 230 147 169 173 174 177 193 221 244 254 256 249 277 264 279 278 285 290 291 289 290 294 297 296 300 302 308 313 307 298 292
250 259 265 76 62 98 248 36 55 160 172 180 209 65 130 164 176 184 190 239 250 260 274 278 275 274 276 284 285 289 285 286 287 289 285 285 290 293 295 297 294 296 294 294
255 253 269 20 150 255 52 14 188 222 176 200 138 114 145 165 177 197 231 269 276 283 284 280 282 278 282 282 277 280 286 289 289 289 290 289 284 281 282 285 291 293 293 298
326 20 61 8 338 31 326 107 252 143 145 205 200 154 163 177 179 280 291 289 289 290 288 289 279 279 288 283 286 290 290 288 287 283 278 276 279 284 287 286 284 284 285 286
283 304 351 336 304 280 245 238 184 160 153 185 179 186 240 266 302 304 301 299 295 295 294 292 288 287 289 294 293 292 293 293 293 290 287 282 280 276 276 276 276 277 281 284
264 268 237 254 256 211 189 184 174 147 158 175 235 276 302 294 302 300 300 302 298 296 294 294 293 291 293 295 296 295 295 294 295 295 293 289 282 277 271 269 270 273 275 279
253 39 320 310 257 221 230 213 206 207 188 224 297 302 307 301 300 300 299 302 299 296 296 297 296 295 295 295 295 293 293 295 295 294 294 291 287 284 278 276 274 275 278 279
294 309 291 268 264 227 231 222 206 222 252 286 303 304 307 302 300 312 299 293 293 299 299 298 297 296 297 296 295 293 292 292 291 292 291 292 290 286 286 282 282 282 281 282
273 258 248 240 224 205 221 186 190 265 278 286 301 305 306 308 307 307 305 303 299 297 296 296 294 292 294 296 293 294 289 288 294 295 294 292 289 291 287 283 282 284 283 289
251 233 257 209 210 182 204 200 240 267 277 296 311 318 313 309 307 305 303 301 299 296 296 297 300 295 294 289 295 291 285 291 292 292 292 292 290 286 284 283 281 282 284 281
211 224 207 224 207 196 222 248 265 299 329 322 311 310 307 305 305 306 307 307 307 302 300 302 299 295 293 289 285 289 284 289 289 292 291 291 291 289 290 284 286 284 281 284
254 221 233 238 229 238 198 36 322 322 317 318 316 315 314 312 310 310 310 310 307 303 309 307 307 293 296 297 301 291 292 293 291 294 286 287 294 288 287 287 288 289 285 283
253 268 219 234 163 153 146 124 319 336 333 328 325 325 322 320 320 319 321 318 314 312 314 302 291 292 294 299 300 295 294 291 291 286 290 290 287 285 287 289 288 286 285 285
170 136 118 110 99 101 102 4 342 344 342 345 347 344 339 337 329 325 326 327 327 324 316 311 311 310 307 302 298 294 291 292 291 287 287 290 289 285 282 283 287 287 285 278
132 133 118 99 85 87 82 33 32 28 18 15 6 358 350 340 339 336 337 337 334 321 323 324 324 319 310 309 303 297 292 289 289 289 287 286 288 289 289 289 288 289 287 276
131 119 103 97 88 82 78 75 73 60 41 28 20 11 360 358 347 342 343 339 335 334 334 337 333 325 319 314 309 305 303 298 293 290 288 288 290 289 292 293 294 292 289 283
123 109 100 101 99 95 90 77 68 54 40 31 14 7 5 359 358 353 351 337 342 346 351 351 343 334 327 321 318 309 297 288 283 283 283 284 290 297 298 300 305 305 296 290
132 122 103 115 132 122 105 79 46 51 33 12 8 10 10 8 1 5 3 359 5 360 3 1 356 354 350 345 337 325 312 303 298 294 290 289 292 296 299 301 304 307 307 303
148 143 148 147 147 147 136 88 72 22 4 4 354 360 358 356 359 356 355 351 360 4 8 10 10 6 2 360 355 346 335 323 313 304 301 301 301 297 294 289 294 293 297 298
173 169 168 170 174 207 203 238 293 337 337 332 344 353 350 346 346 349 346 347 352 360 1 359 15 16 17 15 9 3 354 346 335 326 320 316 314 309 300 296 296 300 300 298
192 200 208 198 235 231 237 273 296 311 331 332 333 337 341 343 341 349 345 344 349 350 352 354 358 11 21 23 22 20 16 8 359 352 344 337 328 323 314 304 302 302 300 297
208 214 215 218 225 227 233 241 255 293 318 325 325 333 348 354 352 357 357 355 358 0 358 354 354 356 10 17 19 23 27 27 24 18 12 7 354 347 336 334 331 326 321 311